Tracking 19574 objects as of 16-Feb-2019
HD Live streaming from Space Station
objects crossing your sky now

TDRS 10

Track TDRS 10 now!
TDRS 10 is classified as:


NORAD ID: 27566
Int'l Code: 2002-055A
Perigee: 35,747.5 km
Apogee: 35,842.7 km
Inclination: 6.1 °
Period: 1,436.2 minutes
Semi major axis: 42166 km
RCS: 5.0118 m2 (large)
Launch date: December 5, 2002
Source: United States (US)
Launch site: AIR FORCE EASTERN TEST RANGE (AFETR)

Tracking and communications with space shuttle, other missions.
aabbcc
Your satellite tracking list
Your tracking list is empty




NASA's NSSDC Master Catalog

Two Line Element Set (TLE):
1 27566U 02055A   19046.80802072 +.00000085 +00000-0 +00000-0 0  9998
2 27566 006.0714 055.7832 0011290 258.4124 311.1055 01.00267103059375
Source of the keplerian elements: AFSPC